Regional Weather Roundup
Issued by NWS Sterling, VA

Home | Current Version | Previous Version | Graphics & Text | Print | Product List | Glossary On
Versions: 1 2 3 4 5 6 7 8 9 10 11 12 13 14 15 16 17 18 19 20 21 22 23 24 25 26 27 28 29 30 31 32 33 34 35 36 37 38 39 40 41 42 43 44 45 46
000
ASUS41 KLWX 270710
RWRLWX

REGIONAL WEATHER ROUNDUP
NATIONAL WEATHER SERVICE BALTIMORE MD/WASHINGTON DC
200 AM EST FRI FEB 27 2015

Note: "FAIR" indicates few or no clouds below 12,000 feet
with no significant weather and/or obstructions to visibility.
 TC=TEMPERATURE CELSIUS

 * =Non NWS site. Station does not report precipitation (e.g. rain,
    snow, etc.), thunder, or fog.

DCZ001-MDZ009-015-VAZ040>042-051-053>054-270800-
WASHINGTON METRO

CITY           SKY/WX    TMP DP  RH WIND       PRES   REMARKS
WASHINGTON NAT CLOUDY    33  24  69 CALM      30.20R
DULLES         CLOUDY    31  24  75 CALM      30.18R
ANDREWS AFB    CLOUDY    29  24  83 W1        30.18R
FT BELVOIR     CLOUDY    30  26  83 CALM      30.21R
QUANTICO       CLOUDY    32  25  75 CALM      30.21R
COLLEGE PARK*  CLOUDY    32  25  74 CALM      30.19R
LEESBURG*      CLOUDY    32  27  80 N3        30.19R
MANASSAS*      CLOUDY    30  28  93 CALM      30.19R
GAITHERSBURG*  CLOUDY    28  21  74 CALM      30.20S

$$

MDZ006>007-011-014-270800-
BALTIMORE METRO

CITY           SKY/WX    TMP DP  RH WIND       PRES   REMARKS
BWI AIRPORT    CLOUDY    27  21  78 CALM      30.19R
MD SCIENCE CTR   N/A     30  22  72 MISG      30.19R
MARTIN STATE   MOCLDY    28  25  86 CALM      30.21R
ANNAPOLIS      CLOUDY    29  24  82 CALM      30.19R
FORT MEADE*    CLOUDY    28  23  80 CALM      30.21R

$$

MDZ012-015-019>023-270800-
MARYLAND EASTERN SHORE

CITY           SKY/WX    TMP DP  RH WIND       PRES   REMARKS
OCEAN CITY     CLEAR     16  13  88 CALM      30.20R FOG
SALISBURY      CLOUDY    18  13  80 CALM      30.20R HAZE
BAY BRIDGE AP*   N/A     28  23  80 CALM      30.20R
CAMBRIDGE*     CLOUDY    27  23  86 CALM      30.20R
EASTON*        CLOUDY    28  26  92 CALM      30.23R

$$

MDZ017>025-270800-
SOUTHERN MARYLAND

CITY           SKY/WX    TMP DP  RH WIND       PRES   REMARKS
PATUXENT RIVER CLOUDY    24  20  84 CALM      30.20R
ST INIGOES     CLOUDY    24  19  81 CALM      30.20R
LEONARDTOWN*   CLOUDY    25  21  86 CALM      30.21R

$$

MDZ003>005-270800-
NORTH CENTRAL MARYLAND

CITY           SKY/WX    TMP DP  RH WIND       PRES   REMARKS
FREDERICK*     CLOUDY    28  19  69 CALM      30.21
HAGERSTOWN APT CLOUDY    27  21  78 CALM      30.16R
WESTMINSTER*   CLOUDY    27  19  74 CALM      30.15R

$$

MDZ501>502-270800-
WESTERN MARYLAND

CITY           SKY/WX    TMP DP  RH WIND       PRES   REMARKS
OAKLAND*       CLOUDY     9 N/A N/A NW5       30.04R FOG
CUMBERLAND*    MOCLDY    27  12  54 NW12      30.24R WCI  16

$$

VAZ025>031-270800-
SHENANDOAH VALLEY

CITY           SKY/WX    TMP DP  RH WIND       PRES   REMARKS
WINCHESTER*    CLOUDY    30  18  59 NW5       30.16R
FRONT ROYAL*   FAIR      27  23  86 CALM      30.15R
LURAY*         FAIR      30  28  93 CALM      30.14R
NEW MARKET*    CLOUDY    25  23  92 CALM      30.13R
STAUNTON*      PTCLDY    26  23  88 CALM      30.14R FOG
WAYNESBORO*    FAIR      27  22  82 CALM      30.11R

$$

WVZ021-048>050-054>055-270800-
EASTERN WEST VIRGINIA PANHANDLE

CITY           SKY/WX    TMP DP  RH WIND       PRES   REMARKS
MARTINSBURG    CLOUDY    27  21  78 CALM      30.17R
PETERSBURG*    NOT AVBL

$$

VAZ036>039-050-270800-
CENTRAL FOOTHILLS

CITY           SKY/WX    TMP DP  RH WIND       PRES   REMARKS
CHARLOTTESVILL MOCLDY    31  25  78 S3        30.15R
CULPEPER*      MOCLDY    30  28  93 CALM      30.18R
ORANGE*        CLOUDY    32  28  86 CALM      30.18R
GORDONSVILLE*  CLOUDY    30  27  87 CALM      30.15S
WARRENTON*     CLOUDY    31  31  98 CALM      30.18R

$$

VAZ055>057-270800-
NORTH AND CENTRAL PIEDMONT

CITY           SKY/WX    TMP DP  RH WIND       PRES   REMARKS
FREDERICKSBRG* CLOUDY    31  29  91 CALM      30.19R
STAFFORD*      CLOUDY    30  28  93 CALM      30.23R

$$

NCZ024-NYZ072-PAZ021-071-VAZ022-071-270800-
OTHER REGIONAL OBSERVATIONS

CITY           SKY/WX    TMP DP  RH WIND       PRES   REMARKS
NEW YORK CITY  CLEAR     21   5  50 CALM      30.20R
PHILADELPHIA   CLOUDY    26  18  71 CALM      30.20R
PITTSBURGH     MOCLDY     9   3  77 NW12      30.25R WCI  -6
ROANOKE        CLOUDY    33  22  63 NW8       30.16R WCI  26
RICHMOND       CLOUDY    29  27  92 CALM      30.19R FOG
RALEIGH        CLOUDY    29  26  89 CALM      30.19R FOG

$$

ANZ530>537-270800-
MARINE OBSERVATIONS

STATION/POSITION TIME  TEMP    WIND        PRES
                       AIR SEA DIR/SP/G
                 (UTC) (F)     (DEG/KT/KT) (MB)
THOMAS PT LIGHT  0700   29 31  260/  2/  2 1023.8R
BALT KEY BRIDGE  0600   30      CALM  /  1 1021.7R
COVE POINT       0600   28      CALM  /  1 1021.6R
LEWISETTA        0600   25 32     CALM     1021.9R
SOLOMONS ISLAND  0612      32                N/A

$$



USA.gov is the U.S. government's official web portal to all federal, state and local government web resources and services.